Location: Central Falls
(41.8900°N, 71.3929°W)
Time: 04:43:09
(UTC+00:00)

Vanguard 2 Rocket - Pass Details

Date: 11 December 2023
Orbit: 555 x 3309 km, 32.9° (Epoch: 01 March)

Event Time Altitude Azimuth Distance (km) Brightness Sun altitude
Rises 22:18:03 0° 277° (W) 6,772 12.6 -11.5°
Reaches altitude 10° 22:22:28 10° 272° (W) 5,975 12.2 -12.2°
Maximum altitude 22:40:44 49° 206° (SSW) 3,905 10.3 -15.5°
Drops below altitude 10° 22:57:26 10° 139° (SE) 5,486 10.6 -18.5°
Sets 23:01:19 0° 134° (SE) 6,202 10.8 -19.2°
